Location: Pabrico
(37.5827°N, 122.0063°W)
Time: 22:39:20
(UTC+00:00)

Cosmos 1975 - Pass Details

Date: 13 April 2024
Orbit: 514 x 533 km, 82.5° (Epoch: 21 May)

Event Time Altitude Azimuth Distance (km) Brightness Sun altitude
Rises 12:43:12 0° 338° (NNW) 2,641 6.3 -10.7°
Reaches altitude 10° 12:45:36 10° 325° (NW) 1,752 5.2 -10.2°
Maximum altitude 12:48:44 24° 270° (W) 1,100 3.8 -9.6°
Drops below altitude 10° 12:51:52 10° 215° (SW) 1,750 4.9 -9.1°
Enters shadow 12:54:04 - 202° (SSW) 2,560 5.8 -8.6°
